Wetterdaten: Freitag, 17.04.2015
Datum Zeit Temp. A. Feuchte A. Luftdruck Regen Wind Richtung Richtung Sonnenschein ET UV Solar Taupunkt Windchill Windben Empfang
17.04.2015 00:00 13,5 C 59 % 1010,4 hPa 0,0 l/m 0,0 km/h (0 Bft) S 186 0 min 0,000 mm 0,0 UV-I 0 W/m 5,6 C 13,5 C 0,0 km/h (0 Bft) 0,00 %
17.04.2015 00:15 13,3 C 57 % 1010,5 hPa 0,0 l/m 0,0 km/h (0 Bft) W-SW 252 0 min 0,000 mm 0,0 UV-I 0 W/m 5,0 C 13,3 C 0,0 km/h (0 Bft) 0,00 %
17.04.2015 00:30 13,1 C 57 % 1010,3 hPa 0,0 l/m 0,0 km/h (0 Bft) S 174 0 min 0,000 mm 0,0 UV-I 0 W/m 4,8 C 13,1 C 0,0 km/h (0 Bft) 0,00 %
17.04.2015 00:45 13,0 C 56 % 1010,6 hPa 0,0 l/m 0,0 km/h (0 Bft) S-SO 150 0 min 0,000 mm 0,0 UV-I 0 W/m 4,4 C 13,0 C 0,0 km/h (0 Bft) 0,00 %
17.04.2015 01:00 12,9 C 56 % 1010,7 hPa 0,0 l/m 0,0 km/h (0 Bft) N-NW 332 0 min 0,000 mm 0,0 UV-I 0 W/m 4,3 C 12,9 C 0,0 km/h (0 Bft) 0,00 %
17.04.2015 01:15 12,9 C 55 % 1010,4 hPa 0,0 l/m 0,0 km/h (0 Bft) S 189 0 min 0,000 mm 0,0 UV-I 0 W/m 4,1 C 12,9 C 0,0 km/h (0 Bft) 0,00 %
17.04.2015 01:30 12,8 C 56 % 1010,5 hPa 0,0 l/m 0,0 km/h (0 Bft) S-SW 206 0 min 0,000 mm 0,0 UV-I 0 W/m 4,2 C 12,8 C 0,0 km/h (0 Bft) 0,00 %
17.04.2015 01:45 12,7 C 55 % 1010,4 hPa 0,0 l/m 0,0 km/h (0 Bft) S-SW 213 0 min 0,000 mm 0,0 UV-I 0 W/m 3,9 C 12,7 C 0,0 km/h (0 Bft) 0,00 %
17.04.2015 02:00 12,7 C 55 % 1010,4 hPa 0,0 l/m 0,0 km/h (0 Bft) NW 310 0 min 0,000 mm 0,0 UV-I 0 W/m 3,9 C 12,7 C 0,0 km/h (0 Bft) 0,00 %
17.04.2015 02:15 12,4 C 58 % 1010,1 hPa 0,0 l/m 0,0 km/h (0 Bft) S-SW 199 0 min 0,000 mm 0,0 UV-I 0 W/m 4,4 C 12,4 C 0,0 km/h (0 Bft) 0,00 %
17.04.2015 02:30 12,1 C 58 % 1010,0 hPa 0,0 l/m 0,0 km/h (0 Bft) S 179 0 min 0,000 mm 0,0 UV-I 0 W/m 4,1 C 12,1 C 0,0 km/h (0 Bft) 0,00 %
17.04.2015 02:45 12,1 C 58 % 1009,8 hPa 0,0 l/m 0,0 km/h (0 Bft) S 183 0 min 0,000 mm 0,0 UV-I 0 W/m 4,1 C 12,1 C 0,0 km/h (0 Bft) 0,00 %
17.04.2015 03:00 12,0 C 58 % 1009,8 hPa 0,0 l/m 0,0 km/h (0 Bft) S-SW 194 0 min 0,000 mm 0,0 UV-I 0 W/m 4,0 C 12,0 C 0,0 km/h (0 Bft) 0,00 %
17.04.2015 03:15 11,6 C 60 % 1010,1 hPa 0,0 l/m 0,0 km/h (0 Bft) S 188 0 min 0,000 mm 0,0 UV-I 0 W/m 4,1 C 11,6 C 0,0 km/h (0 Bft) 0,00 %
17.04.2015 03:30 12,0 C 57 % 1010,0 hPa 0,0 l/m 0,0 km/h (0 Bft) S 191 0 min 0,000 mm 0,0 UV-I 0 W/m 3,8 C 12,0 C 0,0 km/h (0 Bft) 0,00 %
17.04.2015 03:45 12,0 C 58 % 1010,2 hPa 0,0 l/m 0,7 km/h (0 Bft) W-SW 255 0 min 0,000 mm 0,0 UV-I 0 W/m 4,0 C 12,0 C 4,0 km/h (1 Bft) 0,00 %
17.04.2015 04:00 12,5 C 55 % 1010,0 hPa 0,0 l/m 11,5 km/h (2 Bft) W-SW 256 0 min 0,000 mm 0,0 UV-I 0 W/m 3,7 C 9,6 C 11,9 km/h (2 Bft) 0,00 %
17.04.2015 04:15 12,8 C 55 % 1009,8 hPa 0,0 l/m 2,9 km/h (1 Bft) W-SW 256 0 min 0,000 mm 0,0 UV-I 0 W/m 4,0 C 12,8 C 4,0 km/h (1 Bft) 0,00 %
17.04.2015 04:30 12,7 C 56 % 1010,0 hPa 0,0 l/m 1,8 km/h (1 Bft) W-SW 251 0 min 0,000 mm 0,0 UV-I 0 W/m 4,2 C 12,7 C 4,0 km/h (1 Bft) 0,00 %
17.04.2015 04:45 12,7 C 56 % 1010,0 hPa 0,0 l/m 0,4 km/h (0 Bft) SW 222 0 min 0,000 mm 0,0 UV-I 0 W/m 4,2 C 12,7 C 4,0 km/h (1 Bft) 0,00 %
17.04.2015 05:00 12,8 C 56 % 1009,8 hPa 0,0 l/m 2,2 km/h (1 Bft) SW 220 0 min 0,000 mm 0,0 UV-I 0 W/m 4,2 C 12,8 C 4,0 km/h (1 Bft) 0,00 %
17.04.2015 05:15 13,2 C 55 % 1009,7 hPa 0,0 l/m 0,4 km/h (0 Bft) NO 45 0 min 0,000 mm 0,0 UV-I 0 W/m 4,4 C 13,2 C 4,0 km/h (1 Bft) 0,00 %
17.04.2015 05:30 13,6 C 53 % 1010,1 hPa 0,0 l/m 3,2 km/h (1 Bft) S-SW 213 0 min 0,000 mm 0,0 UV-I 0 W/m 4,2 C 13,6 C 4,0 km/h (1 Bft) 0,00 %
17.04.2015 05:45 14,2 C 53 % 1010,0 hPa 0,0 l/m 7,2 km/h (2 Bft) SW 230 0 min 0,000 mm 0,0 UV-I 0 W/m 4,8 C 13,7 C 11,9 km/h (2 Bft) 0,00 %
17.04.2015 06:00 14,2 C 54 % 1010,1 hPa 0,0 l/m 5,4 km/h (1 Bft) W-NW 302 0 min 0,000 mm 0,0 UV-I 0 W/m 5,0 C 14,2 C 7,9 km/h (2 Bft) 0,00 %
17.04.2015 06:15 14,0 C 57 % 1010,2 hPa 0,0 l/m 0,0 km/h (0 Bft) SW 226 0 min 0,000 mm 0,0 UV-I 0 W/m 5,6 C 14,0 C 0,0 km/h (0 Bft) 0,00 %
17.04.2015 06:30 13,6 C 61 % 1010,1 hPa 0,0 l/m 0,0 km/h (0 Bft) S-SW 210 0 min 0,000 mm 0,0 UV-I 0 W/m 6,2 C 13,6 C 0,0 km/h (0 Bft) 0,00 %
17.04.2015 06:45 13,2 C 64 % 1010,4 hPa 0,0 l/m 0,0 km/h (0 Bft) S 180 0 min 0,000 mm 0,0 UV-I 11 W/m 6,5 C 13,2 C 0,0 km/h (0 Bft) 0,00 %
17.04.2015 07:00 13,1 C 64 % 1010,2 hPa 0,0 l/m 0,0 km/h (0 Bft) SO 137 0 min 0,000 mm 0,0 UV-I 6 W/m 6,4 C 13,1 C 0,0 km/h (0 Bft) 0,00 %
17.04.2015 07:15 13,1 C 70 % 1010,2 hPa 0,0 l/m 0,0 km/h (0 Bft) S-SW 208 0 min 0,000 mm 0,0 UV-I 32 W/m 7,8 C 13,1 C 0,0 km/h (0 Bft) 0,00 %
17.04.2015 07:30 12,7 C 73 % 1010,2 hPa 0,0 l/m 0,0 km/h (0 Bft) S-SW 197 0 min 0,000 mm 1,0 UV-I 44 W/m 8,0 C 12,7 C 0,0 km/h (0 Bft) 0,00 %
17.04.2015 07:45 13,1 C 71 % 1010,4 hPa 0,0 l/m 0,0 km/h (0 Bft) S-SW 207 0 min 0,000 mm 1,0 UV-I 59 W/m 8,0 C 13,1 C 0,0 km/h (0 Bft) 0,00 %
17.04.2015 08:00 13,9 C 67 % 1010,1 hPa 0,0 l/m 0,0 km/h (0 Bft) SW 224 0 min 0,000 mm 1,0 UV-I 98 W/m 7,9 C 13,9 C 0,0 km/h (0 Bft) 0,00 %
17.04.2015 08:15 13,8 C 76 % 1010,4 hPa 0,3 l/m 0,0 km/h (0 Bft) S-SW 201 0 min 0,000 mm 1,0 UV-I 80 W/m 9,6 C 13,8 C 0,0 km/h (0 Bft) 0,00 %
17.04.2015 08:30 12,7 C 84 % 1010,6 hPa 0,3 l/m 0,0 km/h (0 Bft) S-SW 198 0 min 0,000 mm 1,0 UV-I 92 W/m 10,1 C 12,7 C 0,0 km/h (0 Bft) 0,00 %
17.04.2015 08:45 12,8 C 83 % 1010,1 hPa 0,0 l/m 0,0 km/h (0 Bft) S-SW 212 0 min 0,000 mm 2,0 UV-I 122 W/m 10,0 C 12,8 C 0,0 km/h (0 Bft) 0,00 %
17.04.2015 09:00 13,1 C 81 % 1010,3 hPa 0,0 l/m 0,0 km/h (0 Bft) N 355 0 min 0,000 mm 1,0 UV-I 219 W/m 9,9 C 13,1 C 0,0 km/h (0 Bft) 0,00 %
17.04.2015 09:15 12,9 C 78 % 1010,3 hPa 0,0 l/m 0,0 km/h (0 Bft) S 174 0 min 0,000 mm 1,0 UV-I 111 W/m 9,2 C 12,9 C 0,0 km/h (0 Bft) 0,00 %
17.04.2015 09:30 13,4 C 76 % 1010,4 hPa 0,0 l/m 0,0 km/h (0 Bft) S 180 0 min 0,000 mm 1,0 UV-I 143 W/m 9,3 C 13,4 C 0,0 km/h (0 Bft) 0,00 %
17.04.2015 09:45 12,9 C 82 % 1010,7 hPa 0,3 l/m 0,0 km/h (0 Bft) S-SW 196 0 min 0,000 mm 1,0 UV-I 77 W/m 9,9 C 12,9 C 0,0 km/h (0 Bft) 0,00 %
17.04.2015 10:00 12,6 C 83 % 1010,7 hPa 0,6 l/m 0,0 km/h (0 Bft) S 174 0 min 0,000 mm 1,0 UV-I 74 W/m 9,8 C 12,6 C 0,0 km/h (0 Bft) 0,00 %
17.04.2015 10:15 12,5 C 84 % 1010,6 hPa 0,0 l/m 0,0 km/h (0 Bft) S-SW 200 0 min 0,000 mm 1,0 UV-I 117 W/m 9,9 C 12,5 C 0,0 km/h (0 Bft) 0,00 %
17.04.2015 10:30 12,7 C 86 % 1010,6 hPa 0,0 l/m 0,0 km/h (0 Bft) SW 223 0 min 0,000 mm 1,0 UV-I 150 W/m 10,4 C 12,7 C 0,0 km/h (0 Bft) 0,00 %
17.04.2015 10:45 12,6 C 87 % 1010,3 hPa 0,0 l/m 0,0 km/h (0 Bft) S 180 0 min 0,000 mm 1,0 UV-I 104 W/m 10,5 C 12,6 C 0,0 km/h (0 Bft) 0,00 %
17.04.2015 11:00 13,3 C 86 % 1010,0 hPa 0,0 l/m 0,0 km/h (0 Bft) S-SW 194 0 min 0,000 mm 2,0 UV-I 166 W/m 11,0 C 13,3 C 0,0 km/h (0 Bft) 0,00 %
17.04.2015 11:15 14,6 C 80 % 1010,1 hPa 0,0 l/m 0,0 km/h (0 Bft) S-SW 200 0 min 0,000 mm 1,0 UV-I 265 W/m 11,2 C 14,6 C 0,0 km/h (0 Bft) 0,00 %
17.04.2015 11:30 14,9 C 76 % 1009,8 hPa 0,0 l/m 0,0 km/h (0 Bft) S 183 0 min 0,000 mm 2,0 UV-I 230 W/m 10,7 C 14,9 C 0,0 km/h (0 Bft) 0,00 %
17.04.2015 11:45 15,4 C 72 % 1009,4 hPa 0,0 l/m 0,0 km/h (0 Bft) S-SW 202 0 min 0,000 mm 1,0 UV-I 236 W/m 10,4 C 15,4 C 0,0 km/h (0 Bft) 0,00 %
17.04.2015 12:00 15,7 C 70 % 1009,3 hPa 0,0 l/m 0,0 km/h (0 Bft) S 186 0 min 0,000 mm 2,0 UV-I 139 W/m 10,2 C 15,7 C 0,0 km/h (0 Bft) 0,00 %
17.04.2015 12:15 15,6 C 71 % 1009,2 hPa 0,0 l/m 0,0 km/h (0 Bft) S 188 0 min 0,000 mm 1,0 UV-I 222 W/m 10,4 C 15,6 C 0,0 km/h (0 Bft) 0,00 %
17.04.2015 12:30 15,5 C 71 % 1009,2 hPa 0,0 l/m 0,0 km/h (0 Bft) S-SO 165 0 min 0,000 mm 0,0 UV-I 141 W/m 10,3 C 15,5 C 0,0 km/h (0 Bft) 0,00 %
17.04.2015 12:45 15,2 C 73 % 1009,2 hPa 0,0 l/m 0,0 km/h (0 Bft) S-SW 213 0 min 0,000 mm 1,0 UV-I 57 W/m 10,4 C 15,2 C 0,0 km/h (0 Bft) 0,00 %
17.04.2015 13:00 15,1 C 75 % 1009,0 hPa 0,0 l/m 4,0 km/h (1 Bft) W-SW 251 0 min 0,000 mm 0,0 UV-I 172 W/m 10,7 C 15,1 C 7,9 km/h (2 Bft) 0,00 %
17.04.2015 13:15 12,5 C 91 % 1009,8 hPa 6,0 l/m 10,8 km/h (2 Bft) NW 304 0 min 0,000 mm 1,0 UV-I 7 W/m 11,1 C 10,0 C 15,8 km/h (3 Bft) 0,00 %
17.04.2015 13:30 12,1 C 95 % 1010,0 hPa 0,9 l/m 4,0 km/h (1 Bft) W-SW 255 0 min 0,000 mm 1,0 UV-I 88 W/m 11,3 C 12,1 C 7,9 km/h (2 Bft) 0,00 %
17.04.2015 13:45 12,1 C 96 % 1009,9 hPa 0,0 l/m 0,4 km/h (0 Bft) SW 228 0 min 0,000 mm 1,0 UV-I 155 W/m 11,5 C 12,1 C 4,0 km/h (1 Bft) 0,00 %
17.04.2015 14:00 12,0 C 95 % 1009,9 hPa 0,3 l/m 0,0 km/h (0 Bft) S-SW 199 0 min 0,000 mm 1,0 UV-I 126 W/m 11,2 C 12,0 C 0,0 km/h (0 Bft) 0,00 %
17.04.2015 14:15 12,3 C 95 % 1009,5 hPa 0,3 l/m 2,2 km/h (1 Bft) W-SW 255 0 min 0,000 mm 1,0 UV-I 138 W/m 11,5 C 12,3 C 4,0 km/h (1 Bft) 0,00 %
17.04.2015 14:30 12,3 C 95 % 1009,4 hPa 0,0 l/m 0,0 km/h (0 Bft) SW 224 0 min 0,000 mm 1,0 UV-I 142 W/m 11,5 C 12,3 C 0,0 km/h (0 Bft) 0,00 %
17.04.2015 14:45 12,3 C 95 % 1009,4 hPa 0,0 l/m 0,0 km/h (0 Bft) S-SW 192 0 min 0,000 mm 1,0 UV-I 105 W/m 11,5 C 12,3 C 0,0 km/h (0 Bft) 0,00 %
17.04.2015 15:00 12,3 C 94 % 1009,3 hPa 0,0 l/m 4,0 km/h (1 Bft) W-SW 251 0 min 0,000 mm 1,0 UV-I 122 W/m 11,4 C 12,3 C 4,0 km/h (1 Bft) 0,00 %
17.04.2015 15:15 12,4 C 93 % 1009,4 hPa 0,0 l/m 0,0 km/h (0 Bft) S 182 0 min 0,000 mm 1,0 UV-I 90 W/m 11,3 C 12,4 C 0,0 km/h (0 Bft) 0,00 %
17.04.2015 15:30 12,8 C 93 % 1009,1 hPa 0,0 l/m 0,4 km/h (0 Bft) SW 228 0 min 0,000 mm 1,0 UV-I 114 W/m 11,7 C 12,8 C 4,0 km/h (1 Bft) 0,00 %
17.04.2015 15:45 13,2 C 91 % 1008,7 hPa 0,0 l/m 0,7 km/h (0 Bft) W-SW 256 0 min 0,000 mm 2,0 UV-I 177 W/m 11,8 C 13,2 C 4,0 km/h (1 Bft) 0,00 %
17.04.2015 16:00 13,9 C 87 % 1008,5 hPa 0,0 l/m 0,0 km/h (0 Bft) W-NW 289 0 min 0,000 mm 2,0 UV-I 217 W/m 11,8 C 13,9 C 0,0 km/h (0 Bft) 0,00 %
17.04.2015 16:15 14,7 C 81 % 1008,2 hPa 0,0 l/m 0,4 km/h (0 Bft) S 185 15 min 0,000 mm 2,0 UV-I 519 W/m 11,5 C 14,7 C 4,0 km/h (1 Bft) 0,00 %
17.04.2015 16:30 14,6 C 81 % 1008,2 hPa 0,0 l/m 0,4 km/h (0 Bft) W-NW 287 15 min 0,000 mm 1,0 UV-I 478 W/m 11,4 C 14,6 C 4,0 km/h (1 Bft) 0,00 %
17.04.2015 16:45 13,5 C 86 % 1008,1 hPa 0,6 l/m 0,7 km/h (0 Bft) N 359 0 min 0,000 mm 0,0 UV-I 61 W/m 11,2 C 13,5 C 4,0 km/h (1 Bft) 0,00 %
17.04.2015 17:00 13,0 C 89 % 1008,6 hPa 0,0 l/m 2,2 km/h (1 Bft) W-SW 251 0 min 0,000 mm 0,0 UV-I 16 W/m 11,2 C 13,0 C 4,0 km/h (1 Bft) 0,00 %
17.04.2015 17:15 11,7 C 91 % 1009,1 hPa 1,5 l/m 13,0 km/h (3 Bft) W-SW 250 0 min 0,000 mm 0,0 UV-I 19 W/m 10,3 C 8,0 C 15,8 km/h (3 Bft) 0,00 %
17.04.2015 17:30 11,4 C 95 % 1009,1 hPa 1,5 l/m 7,9 km/h (2 Bft) W-SW 252 0 min 0,000 mm 0,0 UV-I 11 W/m 10,6 C 10,4 C 11,9 km/h (2 Bft) 0,00 %
17.04.2015 17:45 11,0 C 96 % 1009,2 hPa 2,5 l/m 1,8 km/h (1 Bft) SW 223 0 min 0,000 mm 0,0 UV-I 11 W/m 10,4 C 11,0 C 4,0 km/h (1 Bft) 0,00 %
17.04.2015 18:00 10,6 C 97 % 1009,7 hPa 0,6 l/m 2,2 km/h (1 Bft) N-NW 340 0 min 0,000 mm 0,0 UV-I 16 W/m 10,1 C 10,6 C 7,9 km/h (2 Bft) 0,00 %
17.04.2015 18:15 10,5 C 97 % 1009,9 hPa 0,9 l/m 2,9 km/h (1 Bft) W-SW 239 0 min 0,000 mm 0,0 UV-I 19 W/m 10,0 C 10,5 C 4,0 km/h (1 Bft) 0,00 %
17.04.2015 18:30 10,4 C 97 % 1010,0 hPa 0,9 l/m 0,7 km/h (0 Bft) W-NW 285 0 min 0,000 mm 0,0 UV-I 23 W/m 9,9 C 10,4 C 4,0 km/h (1 Bft) 0,00 %
17.04.2015 18:45 10,3 C 99 % 1009,8 hPa 0,6 l/m 1,4 km/h (1 Bft) NO 48 0 min 0,000 mm 0,0 UV-I 28 W/m 10,1 C 10,3 C 4,0 km/h (1 Bft) 0,00 %
17.04.2015 19:00 10,2 C 99 % 1010,0 hPa 0,2 l/m 4,3 km/h (1 Bft) W-SW 256 0 min 0,000 mm 0,0 UV-I 17 W/m 10,0 C 10,2 C 7,9 km/h (2 Bft) 0,00 %
17.04.2015 19:15 10,2 C 99 % 1010,2 hPa 0,6 l/m 1,8 km/h (1 Bft) NW 312 0 min 0,000 mm 0,0 UV-I 6 W/m 10,0 C 10,2 C 4,0 km/h (1 Bft) 0,00 %
17.04.2015 19:30 10,1 C 98 % 1010,3 hPa 0,0 l/m 0,0 km/h (0 Bft) O-SO 109 0 min 0,000 mm 0,0 UV-I 4 W/m 9,8 C 10,1 C 0,0 km/h (0 Bft) 0,00 %
17.04.2015 19:45 10,1 C 98 % 1010,7 hPa 0,6 l/m 0,4 km/h (0 Bft) S-SW 212 0 min 0,000 mm 0,0 UV-I 0 W/m 9,8 C 10,1 C 4,0 km/h (1 Bft) 0,00 %
17.04.2015 20:00 10,1 C 98 % 1011,0 hPa 0,6 l/m 0,0 km/h (0 Bft) SW 232 0 min 0,000 mm 0,0 UV-I 0 W/m 9,8 C 10,1 C 0,0 km/h (0 Bft) 0,00 %
17.04.2015 20:15 10,0 C 98 % 1011,2 hPa 1,5 l/m 7,2 km/h (2 Bft) N-NO 26 0 min 0,000 mm 0,0 UV-I 0 W/m 9,7 C 9,4 C 11,9 km/h (2 Bft) 0,00 %
17.04.2015 20:30 9,2 C 98 % 1012,0 hPa 0,9 l/m 11,9 km/h (2 Bft) N-NW 335 0 min 0,000 mm 0,0 UV-I 0 W/m 8,9 C 5,6 C 15,8 km/h (3 Bft) 0,00 %
17.04.2015 20:45 8,6 C 98 % 1012,6 hPa 0,6 l/m 1,4 km/h (1 Bft) O-NO 60 0 min 0,000 mm 0,0 UV-I 0 W/m 8,3 C 8,6 C 4,0 km/h (1 Bft) 0,00 %
17.04.2015 21:00 8,4 C 99 % 1012,7 hPa 0,9 l/m 0,4 km/h (0 Bft) O 94 0 min 0,000 mm 0,0 UV-I 0 W/m 8,3 C 8,4 C 4,0 km/h (1 Bft) 0,00 %
17.04.2015 21:15 8,1 C 99 % 1013,3 hPa 0,9 l/m 5,8 km/h (2 Bft) O 86 0 min 0,000 mm 0,0 UV-I 0 W/m 8,0 C 8,1 C 7,9 km/h (2 Bft) 0,00 %
17.04.2015 21:30 7,6 C 98 % 1013,6 hPa 0,9 l/m 0,0 km/h (0 Bft) O-SO 117 0 min 0,000 mm 0,0 UV-I 0 W/m 7,3 C 7,6 C 0,0 km/h (0 Bft) 0,00 %
17.04.2015 21:45 7,5 C 98 % 1014,1 hPa 0,3 l/m 0,0 km/h (0 Bft) S 178 0 min 0,000 mm 0,0 UV-I 0 W/m 7,2 C 7,5 C 0,0 km/h (0 Bft) 0,00 %
17.04.2015 22:00 7,6 C 99 % 1014,2 hPa 0,3 l/m 0,0 km/h (0 Bft) S 184 0 min 0,000 mm 0,0 UV-I 0 W/m 7,5 C 7,6 C 0,0 km/h (0 Bft) 0,00 %
17.04.2015 22:15 7,7 C 99 % 1014,5 hPa 0,3 l/m 0,0 km/h (0 Bft) S-SW 202 0 min 0,000 mm 0,0 UV-I 0 W/m 7,6 C 7,7 C 0,0 km/h (0 Bft) 0,00 %
17.04.2015 22:30 7,8 C 99 % 1014,6 hPa 0,3 l/m 0,0 km/h (0 Bft) S-SW 202 0 min 0,000 mm 0,0 UV-I 0 W/m 7,7 C 7,8 C 0,0 km/h (0 Bft) 0,00 %
17.04.2015 22:45 7,8 C 99 % 1014,8 hPa 0,3 l/m 0,0 km/h (0 Bft) S-SW 202 0 min 0,000 mm 0,0 UV-I 0 W/m 7,7 C 7,8 C 0,0 km/h (0 Bft) 0,00 %
17.04.2015 23:00 7,7 C 99 % 1015,2 hPa 0,3 l/m 0,0 km/h (0 Bft) SW 214 0 min 0,000 mm 0,0 UV-I 0 W/m 7,6 C 7,7 C 0,0 km/h (0 Bft) 0,00 %
17.04.2015 23:15 7,7 C 99 % 1015,6 hPa 0,3 l/m 0,0 km/h (0 Bft) SW 233 0 min 0,000 mm 0,0 UV-I 0 W/m 7,6 C 7,7 C 0,0 km/h (0 Bft) 0,00 %
17.04.2015 23:30 7,5 C 99 % 1015,8 hPa 0,6 l/m 0,0 km/h (0 Bft) S-SW 199 0 min 0,000 mm 0,0 UV-I 0 W/m 7,4 C 7,5 C 0,0 km/h (0 Bft) 0,00 %
17.04.2015 23:45 7,3 C 97 % 1016,0 hPa 0,3 l/m 0,0 km/h (0 Bft) S-SW 211 0 min 0,000 mm 0,0 UV-I 0 W/m 6,9 C 7,3 C 0,0 km/h (0 Bft) 0,00 %
_ Min-Zeit 23:45 05:30 16:45 - 00:00 - - - - - - 04:00 20:30 00:00 00:00
Minimum _ 7,3 C 53 % 1008,1 hPa - 0,0 km/h (0 Bft) - - - - - - 3,7 C 5,6 C 0,0 km/h (0 Bft) 0,00 %
_ Max-Zeit 12:00 18:45 23:45 13:15 17:15 - - 16:15 00:00 08:45 16:15 16:00 12:00 13:15 00:00
Maximum _ 15,7 C 99 % 1016,0 hPa 6,0 l/m 13,0 km/h
W-SW (3 Bft)
- - 15 min 0,000 mm 2,0 UV-I 519 W/m 11,8 C 15,7 C 15,8 km/h
NW (3 Bft)
0,00 %
Durchschnitt _ 12,0 C 79 % 1010,5 hPa #28,8 l/m 1,4 km/h (1 Bft) W-SW - #30 min. #0,000 mm 1,2 UV-I 113 W/m 8,2 C 11,9 C 2,5 km/h (1 Bft) 0,00 %